| time (UTC) | temp C | wind direction | speed KPH | gust KPH | rain 1hr cm | rain 24hr cm | rain mn cm | humidity % | barometer mb |
| 20260504100103 | 7 | 98 | 0.0 | 4.8 | 0.00 | 0.00 | 0.00 | 85 | 1013.5 |
| 20260504081609 | 8 | 61 | 0.0 | 4.8 | 0.00 | 0.00 | 0.00 | 82 | 1014.2 |
| 20260504080104 | 8 | 0 | 0.0 | 9.7 | 0.00 | 0.00 | 0.00 | 82 | 1014.3 |
| 20260504044600 | 10 | 0 | 0.0 | 3.2 | 0.00 | 0.00 | 0.00 | 76 | 1015.6 |
| 20260504043100 | 10 | 0 | 1.6 | 8.0 | 0.00 | 0.00 | 0.00 | 73 | 1015.6 |
| 20260504041603 | 10 | 130 | 1.6 | 6.4 | 0.00 | 0.00 | 0.00 | 69 | 1015.9 |
| 20260504034557 | 9 | 168 | 0.0 | 4.8 | 0.00 | 0.00 | 0.00 | 67 | 1015.7 |
| 20260504033059 | 10 | 0 | 0.0 | 0.0 | 0.00 | 0.00 | 0.00 | 67 | 1015.6 |
| 20260504031559 | 10 | 0 | 0.0 | 0.0 | 0.00 | 0.00 | 0.00 | 66 | 1015.4 |
| 20260504030055 | 10 | 0 | 0.0 | 0.0 | 0.00 | 0.00 | 0.00 | 66 | 1015.5 |
| 20260504024601 | 10 | 0 | 0.0 | 3.2 | 0.00 | 0.00 | 0.00 | 65 | 1015.6 |
| 20260504023058 | 10 | 0 | 1.6 | 3.2 | 0.00 | 0.00 | 0.00 | 63 | 1015.4 |
| 20260504021556 | 10 | 0 | 0.0 | 4.8 | 0.00 | 0.00 | 0.00 | 60 | 1015.1 |
| 20260504020131 | 10 | 0 | 0.0 | 3.2 | 0.00 | 0.00 | 0.00 | 58 | 1015.1 |
| 20260504014605 | 11 | 0 | 0.0 | 3.2 | 0.00 | 0.00 | 0.00 | 56 | 1015.1 |
| 20260504013115 | 11 | 0 | 1.6 | 6.4 | 0.00 | 0.00 | 0.00 | 54 | 1015.0 |
| 20260504011554 | 11 | 170 | 0.0 | 3.2 | 0.00 | 0.00 | 0.00 | 51 | 1015.1 |
| 20260504010058 | 12 | 168 | 0.0 | 3.2 | 0.00 | 0.00 | 0.00 | 49 | 1015.0 |
| 20260504004628 | 13 | 190 | 1.6 | 4.8 | 0.00 | 0.00 | 0.00 | 44 | 1014.6 |
| 20260504003100 | 14 | 0 | 1.6 | 6.4 | 0.00 | 0.00 | 0.00 | 42 | 1014.8 |
| 20260504001621 | 15 | 236 | 3.2 | 6.4 | 0.00 | 0.00 | 0.00 | 41 | 1014.8 |
| 20260504000105 | 15 | 247 | 3.2 | 11.3 | 0.00 | 0.00 | 0.00 | 38 | 1014.7 |
| 20260503234604 | 15 | 264 | 3.2 | 11.3 | 0.00 | 0.00 | 0.00 | 36 | 1014.6 |
| 20260503233102 | 16 | 281 | 0.0 | 11.3 | 0.00 | 0.00 | 0.00 | 36 | 1014.8 |
| 20260503231555 | 16 | 248 | 6.4 | 11.3 | 0.00 | 0.00 | 0.00 | 33 | 1015.0 |
| 20260503230112 | 16 | 270 | 4.8 | 19.3 | 0.00 | 0.00 | 0.00 | 32 | 1015.1 |
| 20260503224601 | 16 | 301 | 3.2 | 8.0 | 0.00 | 0.00 | 0.00 | 32 | 1015.2 |
| 20260503223056 | 17 | 241 | 11.3 | 19.3 | 0.00 | 0.00 | 0.00 | 31 | 1015.2 |
| 20260503221603 | 17 | 245 | 4.8 | 17.7 | 0.00 | 0.00 | 0.00 | 33 | 1015.2 |
| 20260503220056 | 17 | 243 | 1.6 | 12.9 | 0.00 | 0.00 | 0.00 | 30 | 1015.3 |
| 20260503214559 | 16 | 306 | 3.2 | 17.7 | 0.00 | 0.00 | 0.00 | 31 | 1015.5 |
| 20260503213054 | 17 | 244 | 3.2 | 22.5 | 0.00 | 0.00 | 0.00 | 31 | 1015.4 |
| 20260503211554 | 17 | 291 | 8.0 | 22.5 | 0.00 | 0.00 | 0.00 | 30 | 1015.6 |
| 20260503210057 | 17 | 263 | 4.8 | 19.3 | 0.00 | 0.00 | 0.00 | 33 | 1015.6 |
| 20260503204557 | 17 | 233 | 8.0 | 16.1 | 0.00 | 0.00 | 0.00 | 32 | 1015.7 |
| 20260503203115 | 17 | 247 | 1.6 | 16.1 | 0.00 | 0.00 | 0.00 | 32 | 1016.1 |
| 20260503201602 | 16 | 263 | 3.2 | 20.9 | 0.00 | 0.00 | 0.00 | 33 | 1016.4 |
| 20260503200106 | 16 | 280 | 8.0 | 20.9 | 0.00 | 0.00 | 0.00 | 32 | 1016.5 |
| 20260503194602 | 16 | 272 | 6.4 | 19.3 | 0.00 | 0.00 | 0.00 | 31 | 1017.1 |
| 20260503193056 | 16 | 322 | 4.8 | 17.7 | 0.00 | 0.00 | 0.00 | 35 | 1017.4 |
| 20260503191601 | 15 | 312 | 12.9 | 17.7 | 0.00 | 0.00 | 0.00 | 34 | 1017.8 |
| 20260503190111 | 15 | 293 | 4.8 | 9.7 | 0.00 | 0.00 | 0.00 | 36 | 1017.9 |
| 20260503184605 | 15 | 266 | 6.4 | 20.9 | 0.00 | 0.00 | 0.00 | 37 | 1018.3 |
| 20260503183102 | 15 | 281 | 3.2 | 17.7 | 0.00 | 0.00 | 0.00 | 35 | 1018.5 |
| 20260503181601 | 14 | 39 | 6.4 | 20.9 | 0.00 | 0.00 | 0.00 | 39 | 1018.7 |
| 20260503180107 | 14 | 345 | 6.4 | 24.1 | 0.00 | 0.00 | 0.00 | 38 | 1018.9 |
| 20260503174600 | 14 | 322 | 11.3 | 17.7 | 0.00 | 0.00 | 0.00 | 36 | 1019.1 |
| 20260503173055 | 14 | 177 | 3.2 | 12.9 | 0.00 | 0.00 | 0.00 | 37 | 1019.3 |
| 20260503171604 | 13 | 23 | 3.2 | 17.7 | 0.00 | 0.00 | 0.00 | 36 | 1019.5 |
| 20260503170151 | 13 | 335 | 4.8 | 16.1 | 0.00 | 0.00 | 0.00 | 39 | 1019.8 |
| 20260503140133 | 8 | 302 | 6.4 | 14.5 | 0.00 | 0.00 | 0.00 | 58 | 1020.9 |